Tracking 33744 objects as of 12-Apr-2026
HD Live streaming from Space Station
objects crossing your sky now

STARLINK-32177

Track STARLINK-32177 now!
10-day predictions
STARLINK-32177 is classified as:


NORAD ID: 60441
Int'l Code: 2024-144S
Perigee: 481.5 km
Apogee: 483.3 km
Inclination: 53.2 °
Period: 94.1 minutes
Semi major axis: 6853 km
RCS: Unknown
Launch date: August 12, 2024
Source: United States (US)
Launch site: AIR FORCE EASTERN TEST RANGE (AFETR)
Your satellite tracking list
Your tracking list is empty




NASA's NSSDC Master Catalog

Two Line Element Set (TLE):
1 60441U 24144S   26102.13806885  .00000295  00000-0  22106-4 0  9991
2 60441  53.1612  61.5230 0001315  95.2530 264.8621 15.30185703 94438
Source of the keplerian elements: AFSPC